Torna al catalogo

AVUM R/B

AttivoVLEO
NORAD 49467·ROCKET BODY·🇫🇷 France

Lanciato Nov 16, 2021 da Guiana Space Centre

Loading…

Prossimi Passaggi (prossime 24 ore)

TLE

AggiornatoSource: Space-Track

Epoca: Sep 14, 2026, 14:23 UTC

1 49467U 21105D   26257.59965814  .00006120  00000-0  16432-3 0  9996
2 49467  74.9191 261.4115 0076999  86.6770 274.3245 15.35050109267592

Traccia AVUM R/B in tempo reale con AllMySat

Download on the App Store